"startDT [UTC]","vpos","CH4 [ppm]","stdev(CH4) [ppm]","CO2 [ppm]","stdev(CO2) [ppm]","H2O [ppm]","stdev(H2O)","p_LGR [torr]","T_LGR [C]","mt1_LGR [us]","mt2_LGR [us]","T_ECpre [C]","T_EC1 [C]","T_EC2 [C]","p_inlet [hPa]","p_in [hPa]","p_out [hPa]","T_inlet [C]","RH_inlet [%]","dwpt_inlet [C]","T_vent [C]","RH_vent [%]","dwpt_vent [C]","flow_vent [l min-1]","flow_inlet [l min-1]","dwpt_sample [C]","T_room [C]"
2012-02-06 00:00:00,0.0,1.9070,0.0011,400.73,0.37,114.6,40.2,138.13,28.06,24.60,36.30,0.04,-272.73,-272.71,-49,558,-913,22.0,3.8,-22.6,22.1,3.8,-22.3,5.73,2.42,-25.8,26.8
2012-02-06 00:01:00,0.0,1.9074,0.0008,400.77,0.48,123.0,31.1,138.13,28.07,24.59,36.30,0.04,-272.74,-272.74,-48,559,-913,22.1,3.7,-22.7,22.2,3.8,-22.3,5.73,2.25,-25.8,26.9
2012-02-06 00:02:00,0.0,1.9079,0.0008,400.87,0.42,138.9,36.0,138.13,28.08,24.59,36.30,0.04,-272.74,-272.74,-48,558,-914,22.1,3.7,-22.7,22.2,3.8,-22.3,5.73,2.43,-25.7,26.9
2012-02-06 00:03:00,0.0,1.9082,0.0009,400.83,0.38,127.2,31.7,138.13,28.09,24.59,36.30,0.04,-272.74,-272.73,-48,558,-914,22.1,3.7,-22.7,22.2,3.8,-22.3,5.73,2.25,-25.6,27.0
2012-02-06 00:04:00,0.0,1.9088,0.0010,400.95,0.37,138.1,31.6,138.12,28.11,24.59,36.30,0.04,-272.74,-272.73,-48,558,-914,22.1,3.7,-22.6,22.2,3.8,-22.3,5.73,2.43,-25.6,27.0
2012-02-06 00:05:00,0.0,1.9084,0.0010,400.97,0.40,138.6,31.9,138.12,28.12,24.60,36.30,0.04,-272.74,-272.73,-48,558,-913,22.1,3.7,-22.7,22.3,3.8,-22.3,5.73,2.26,-25.5,27.0
2012-02-06 00:06:00,0.0,1.9092,0.0009,400.89,0.45,137.5,32.3,138.12,28.13,24.59,36.31,0.04,-272.74,-272.73,-48,558,-913,22.2,3.7,-22.7,22.3,3.8,-22.3,5.73,2.42,-25.5,27.0
2012-02-06 00:07:00,0.0,1.9099,0.0008,400.98,0.42,149.9,40.2,138.12,28.14,24.59,36.30,0.04,-272.74,-272.74,-48,558,-913,22.2,3.7,-22.6,22.3,3.8,-22.3,5.73,2.26,-25.4,27.0
2012-02-06 00:08:00,0.0,1.9097,0.0010,400.92,0.45,154.6,33.2,138.12,28.15,24.60,36.31,0.04,-272.73,-272.75,-47,559,-913,22.2,3.7,-22.7,22.3,3.8,-22.2,5.73,2.42,-25.4,27.0
2012-02-06 00:09:00,0.0,1.9097,0.0009,401.03,0.38,162.0,30.7,138.12,28.16,24.60,36.30,0.04,-272.74,-272.74,-48,559,-914,22.2,3.7,-22.7,22.3,3.8,-22.2,5.73,2.27,-25.3,27.1
2012-02-06 00:10:00,0.0,1.9092,0.0009,400.92,0.37,163.3,33.1,138.11,28.18,24.60,36.30,0.04,-272.74,-272.73,-48,559,-914,22.2,3.7,-22.6,22.4,3.8,-22.2,5.73,2.40,-25.3,27.1
2012-02-06 00:11:00,0.0,1.9102,0.0009,401.07,0.48,168.1,29.5,138.11,28.19,24.59,36.30,0.04,-272.74,-272.74,-48,559,-913,22.3,3.8,-22.5,22.4,3.9,-22.0,5.73,2.28,-25.3,27.2
2012-02-06 00:12:00,0.0,1.9099,0.0008,401.06,0.42,165.9,29.9,138.11,28.20,24.60,36.31,0.04,-272.74,-272.74,-48,560,-913,22.3,3.8,-22.4,22.4,3.9,-22.0,5.73,2.39,-25.2,27.3
2012-02-06 00:13:00,0.0,1.9106,0.0009,400.99,0.36,168.3,29.3,138.11,28.21,24.59,36.31,0.04,-272.73,-272.73,-48,559,-914,22.3,3.8,-22.4,22.4,3.9,-22.0,5.73,2.30,-25.2,27.4
2012-02-06 00:14:00,0.0,1.9108,0.0008,401.00,0.31,170.8,35.8,138.11,28.23,24.59,36.30,0.04,-272.74,-272.74,-48,560,-914,22.3,3.8,-22.4,22.5,3.9,-22.0,5.73,2.35,-25.1,27.4
2012-02-06 00:15:00,0.0,1.9109,0.0009,401.00,0.41,180.7,33.1,138.11,28.24,24.60,36.31,0.04,-272.73,-272.74,-48,558,-913,22.4,3.7,-22.4,22.5,3.9,-22.0,5.73,2.35,-25.1,27.5
2012-02-06 00:16:00,0.0,1.9111,0.0008,400.96,0.39,177.3,31.3,138.11,28.25,24.60,36.31,0.04,-272.74,-272.73,-48,560,-914,22.4,3.7,-22.5,22.5,3.8,-22.1,5.73,2.32,-25.1,27.5
2012-02-06 00:17:00,0.0,1.9113,0.0008,400.97,0.35,175.8,33.3,138.11,28.26,24.60,36.32,0.04,-272.74,-272.74,-48,560,-914,22.4,3.7,-22.5,22.5,3.8,-22.1,5.73,2.30,-25.1,27.1
2012-02-06 00:18:00,0.0,1.9106,0.0010,401.06,0.39,163.3,37.0,138.12,28.27,24.60,36.31,0.04,-272.73,-272.74,-48,560,-915,22.4,3.7,-22.7,22.5,3.8,-22.2,5.73,2.42,-25.2,26.9
2012-02-06 00:19:00,0.0,1.9099,0.0010,400.96,0.44,150.7,37.1,138.12,28.27,24.60,36.31,0.04,-272.73,-272.74,-48,560,-915,22.3,3.7,-22.7,22.4,3.8,-22.3,5.73,2.39,-25.4,26.5
2012-02-06 00:20:00,0.0,1.9097,0.0008,400.99,0.43,134.4,32.6,138.13,28.26,24.60,36.31,0.04,-272.74,-272.73,-48,559,-913,22.3,3.7,-22.7,22.4,3.8,-22.2,5.73,2.36,-25.6,26.0
2012-02-06 00:21:00,0.0,1.9086,0.0009,400.94,0.44,119.2,36.4,138.14,28.24,24.60,36.31,0.04,-272.74,-272.74,-49,561,-915,22.2,3.7,-22.6,22.3,3.8,-22.3,5.73,2.35,-25.8,25.8
2012-02-06 00:22:00,0.0,1.9076,0.0010,400.79,0.41,100.1,34.7,138.14,28.22,24.60,36.31,0.04,-272.74,-272.74,-48,561,-914,22.2,3.7,-22.6,22.2,3.8,-22.3,5.73,2.35,-26.0,25.7
2012-02-06 00:23:00,0.0,1.9070,0.0009,400.88,0.38,88.6,31.2,138.15,28.19,24.60,36.31,0.04,-272.73,-272.74,-49,559,-914,22.1,3.7,-22.7,22.2,3.8,-22.3,5.73,2.34,-26.1,25.5
2012-02-06 00:24:00,0.0,1.9069,0.0009,400.82,0.43,77.7,35.0,138.15,28.17,24.59,36.30,0.04,-272.74,-272.74,-48,560,-914,22.1,3.7,-22.7,22.1,3.8,-22.3,5.73,2.34,-26.2,25.2
2012-02-06 00:25:00,0.0,1.9065,0.0008,400.72,0.37,68.2,32.0,138.16,28.13,24.59,36.31,0.04,-272.74,-272.74,-50,558,-912,22.0,3.7,-22.7,22.1,3.8,-22.3,5.73,2.34,-26.4,25.2
2012-02-06 00:26:00,0.0,1.9058,0.0010,400.62,0.35,61.4,31.7,138.16,28.11,24.60,36.31,0.04,-272.74,-272.74,-49,559,-913,22.0,3.7,-22.7,22.0,3.8,-22.4,5.73,2.34,-26.4,25.6
2012-02-06 00:27:00,0.0,1.9056,0.0010,400.55,0.45,63.0,34.9,138.16,28.08,24.60,36.31,0.04,-272.74,-272.74,-49,558,-913,22.0,3.8,-22.7,22.0,3.8,-22.4,5.73,2.23,-26.4,25.9
2012-02-06 00:28:00,0.0,1.9054,0.0009,400.55,0.36,74.0,33.3,138.15,28.06,24.60,36.30,0.04,-272.74,-272.74,-49,559,-913,22.0,3.8,-22.6,22.0,3.9,-22.3,5.73,2.39,-26.3,26.1
2012-02-06 00:29:00,0.0,1.9055,0.0009,400.63,0.42,81.8,31.8,138.15,28.05,24.59,36.30,0.04,-272.74,-272.74,-49,559,-913,22.0,3.8,-22.7,22.0,3.9,-22.3,5.73,2.36,-26.2,26.3
2012-02-06 00:30:00,0.0,1.9060,0.0009,400.59,0.45,81.8,34.6,138.14,28.04,24.59,36.31,0.04,-272.74,-272.74,-48,558,-913,22.0,3.8,-22.7,22.1,3.9,-22.3,5.73,2.28,-26.1,26.5
2012-02-06 00:31:00,0.0,1.9061,0.0009,400.60,0.33,97.0,32.6,138.14,28.04,24.59,36.30,0.04,-272.74,-272.74,-49,558,-914,22.0,3.7,-22.7,22.1,3.8,-22.4,5.73,2.42,-26.1,26.6
2012-02-06 00:32:00,0.0,1.9060,0.0009,400.63,0.43,97.2,32.7,138.14,28.05,24.59,36.30,0.04,-272.73,-272.74,-48,558,-913,22.0,3.7,-22.7,22.1,3.8,-22.4,5.73,2.25,-26.0,26.7
2012-02-06 00:33:00,0.0,1.9063,0.0009,400.76,0.41,104.3,30.8,138.13,28.05,24.59,36.31,0.04,-272.73,-272.74,-48,558,-913,22.0,3.7,-22.8,22.1,3.8,-22.4,5.73,2.44,-25.9,26.8
2012-02-06 00:34:00,0.0,1.9070,0.0010,400.69,0.41,116.1,32.1,138.13,28.06,24.59,36.30,0.04,-272.74,-272.73,-48,559,-913,22.1,3.7,-22.8,22.1,3.8,-22.4,5.73,2.25,-25.9,26.8
2012-02-06 00:35:00,0.0,1.9070,0.0007,400.67,0.37,116.7,30.9,138.13,28.07,24.59,36.30,0.04,-272.73,-272.74,-48,558,-913,22.1,3.7,-22.7,22.2,3.8,-22.3,5.73,2.43,-25.8,26.9
2012-02-06 00:36:00,0.0,1.9074,0.0009,400.76,0.44,119.5,35.9,138.13,28.08,24.60,36.30,0.04,-272.74,-272.74,-48,558,-913,22.1,3.7,-22.7,22.2,3.8,-22.3,5.73,2.25,-25.8,27.0
2012-02-06 00:37:00,0.0,1.9081,0.0010,400.84,0.42,124.4,38.9,138.13,28.09,24.59,36.30,0.04,-272.74,-272.74,-49,558,-913,22.1,3.7,-22.7,22.2,3.8,-22.3,5.73,2.42,-25.7,27.0
2012-02-06 00:38:00,0.0,1.9085,0.0009,400.96,0.39,128.2,35.5,138.12,28.10,24.60,36.30,0.04,-272.73,-272.74,-48,558,-913,22.1,3.7,-22.7,22.2,3.8,-22.3,5.73,2.26,-25.7,27.0
2012-02-06 00:39:00,0.0,1.9088,0.0009,400.88,0.36,133.5,32.1,138.12,28.11,24.59,36.30,0.04,-272.73,-272.74,-48,558,-913,22.1,3.7,-22.7,22.3,3.8,-22.3,5.73,2.42,-25.5,27.0
2012-02-06 00:40:00,0.0,1.9089,0.0010,400.98,0.39,147.4,37.6,138.12,28.12,24.60,36.30,0.04,-272.74,-272.74,-48,558,-913,22.2,3.7,-22.7,22.3,3.8,-22.3,5.73,2.26,-25.5,27.0
2012-02-06 00:41:00,0.0,1.9093,0.0008,400.95,0.39,142.5,35.8,138.12,28.13,24.59,36.31,0.04,-272.74,-272.74,-48,558,-913,22.2,3.7,-22.7,22.3,3.8,-22.2,5.73,2.42,-25.5,27.0
2012-02-06 00:42:00,0.0,1.9095,0.0009,400.96,0.35,154.2,33.8,138.12,28.14,24.59,36.30,0.04,-272.75,-272.73,-48,559,-913,22.2,3.7,-22.7,22.3,3.8,-22.2,5.73,2.26,-25.4,27.1
2012-02-06 00:43:00,0.0,1.9099,0.0008,400.88,0.45,147.0,36.3,138.11,28.16,24.59,36.31,0.04,-272.74,-272.74,-47,559,-913,22.2,3.7,-22.7,22.3,3.8,-22.2,5.73,2.40,-25.4,27.1
2012-02-06 00:44:00,0.0,1.9095,0.0009,400.87,0.36,160.6,33.2,138.11,28.17,24.60,36.31,0.04,-272.74,-272.74,-48,559,-913,22.3,3.7,-22.6,22.4,3.8,-22.2,5.73,2.28,-25.4,27.1
2012-02-06 00:45:00,0.0,1.9101,0.0008,401.01,0.40,162.6,36.0,138.11,28.18,24.59,36.30,0.04,-272.74,-272.74,-48,559,-913,22.3,3.7,-22.6,22.4,3.8,-22.1,5.73,2.37,-25.3,27.2
2012-02-06 00:46:00,0.0,1.9101,0.0010,401.02,0.40,162.5,40.7,138.11,28.20,24.60,36.30,0.04,-272.74,-272.74,-50,559,-912,22.3,3.7,-22.6,22.4,3.8,-22.1,5.73,2.32,-25.3,27.3
2012-02-06 00:47:00,0.0,1.9104,0.0010,400.94,0.39,164.8,34.9,138.11,28.21,24.59,36.31,0.04,-272.73,-272.74,-48,560,-912,22.3,3.7,-22.5,22.4,3.9,-22.1,5.73,2.32,-25.2,27.4
2012-02-06 00:48:00,0.0,1.9103,0.0012,400.99,0.32,167.7,33.3,138.11,28.22,24.60,36.31,0.04,-272.74,-272.74,-49,560,-913,22.3,3.8,-22.4,22.5,3.9,-22.0,5.73,2.38,-25.2,27.5
2012-02-06 00:49:00,0.0,1.9106,0.0009,401.05,0.35,167.3,38.8,138.11,28.23,24.60,36.30,0.04,-272.74,-272.74,-48,560,-913,22.4,3.7,-22.4,22.5,3.9,-22.0,5.73,2.27,-25.1,27.5
2012-02-06 00:50:00,0.0,1.9105,0.0008,400.99,0.36,170.1,30.7,138.11,28.24,24.60,36.31,0.04,-272.74,-272.74,-49,560,-913,22.4,3.8,-22.4,22.5,3.9,-22.0,5.73,2.42,-25.1,27.5
2012-02-06 00:51:00,0.0,1.9110,0.0010,400.97,0.39,174.8,33.2,138.11,28.26,24.59,36.31,0.04,-272.74,-272.74,-48,560,-913,22.4,3.7,-22.5,22.5,3.9,-22.0,5.73,2.27,-25.1,27.2
2012-02-06 00:52:00,0.0,1.9106,0.0008,401.03,0.43,164.0,32.5,138.11,28.26,24.60,36.31,0.04,-272.74,-272.74,-48,560,-912,22.4,3.7,-22.5,22.5,3.8,-22.0,5.73,2.30,-25.2,26.7
2012-02-06 00:53:00,0.0,1.9099,0.0011,401.01,0.47,148.8,35.8,138.12,28.26,24.60,36.30,0.04,-272.74,-272.74,-49,558,-915,22.4,3.7,-22.5,22.5,3.8,-22.1,5.73,2.37,-25.4,26.4
2012-02-06 00:54:00,0.0,1.9094,0.0010,400.98,0.37,131.2,30.0,138.13,28.25,24.60,36.31,0.04,-272.74,-272.74,-49,559,-914,22.3,3.7,-22.5,22.4,3.9,-22.1,5.73,2.37,-25.6,26.1
2012-02-06 00:55:00,0.0,1.9087,0.0008,400.95,0.39,121.7,36.9,138.14,28.24,24.60,36.30,0.04,-272.74,-272.74,-47,560,-913,22.3,3.7,-22.6,22.3,3.8,-22.2,5.73,2.36,-25.8,25.8
2012-02-06 00:56:00,0.0,1.9076,0.0009,400.87,0.43,103.3,41.8,138.14,28.22,24.60,36.31,0.04,-272.73,-272.74,-49,560,-915,22.2,3.7,-22.6,22.2,3.8,-22.3,5.73,2.34,-26.0,25.6
2012-02-06 00:57:00,0.0,1.9069,0.0011,400.75,0.45,80.5,29.5,138.15,28.20,24.60,36.31,0.04,-272.73,-272.74,-48,560,-914,22.2,3.7,-22.6,22.2,3.8,-22.3,5.73,2.34,-26.1,25.5
2012-02-06 00:58:00,0.0,1.9064,0.0009,400.70,0.37,65.5,30.9,138.15,28.17,24.60,36.31,0.04,-272.74,-272.73,-49,559,-913,22.1,3.7,-22.7,22.1,3.8,-22.3,5.73,2.33,-26.2,25.4
2012-02-06 00:59:00,0.0,1.9061,0.0010,400.66,0.32,68.3,35.8,138.16,28.14,24.59,36.31,0.04,-272.74,-272.74,-52,560,-912,22.0,3.7,-22.7,22.1,3.8,-22.4,5.73,2.33,-26.5,25.2
2012-02-06 01:00:00,0.0,1.9059,0.0009,400.72,0.37,54.4,34.7,138.16,28.11,24.59,36.31,0.04,-272.73,-272.74,-48,559,-913,22.0,3.7,-22.7,22.0,3.8,-22.5,5.73,2.40,-26.6,25.6
2012-02-06 01:01:00,0.0,1.9055,0.0009,400.64,0.44,51.4,33.0,138.16,28.08,24.59,36.31,0.04,-272.74,-272.74,-48,559,-913,22.0,3.7,-22.7,22.0,3.8,-22.5,5.73,2.38,-26.6,25.9
2012-02-06 01:02:00,0.0,1.9053,0.0010,400.60,0.48,63.6,31.1,138.15,28.06,24.60,36.31,0.04,-272.74,-272.74,-48,559,-913,22.0,3.7,-22.7,22.0,3.8,-22.5,5.73,2.22,-26.5,26.1
2012-02-06 01:03:00,0.0,1.9051,0.0008,400.63,0.35,74.3,37.2,138.15,28.05,24.60,36.30,0.04,-272.73,-272.74,-49,559,-913,22.0,3.7,-22.8,22.0,3.8,-22.5,5.73,2.43,-26.4,26.3
2012-02-06 01:04:00,0.0,1.9055,0.0009,400.49,0.38,76.8,34.4,138.15,28.04,24.59,36.31,0.04,-272.74,-272.74,-48,558,-913,22.0,3.7,-22.7,22.0,3.8,-22.4,5.73,2.29,-26.3,26.4
2012-02-06 01:05:00,0.0,1.9054,0.0007,400.70,0.38,83.6,38.7,138.14,28.04,24.59,36.30,0.04,-272.73,-272.75,-48,558,-913,22.0,3.8,-22.7,22.1,3.8,-22.3,5.73,2.37,-26.3,26.6
2012-02-06 01:06:00,0.0,1.9057,0.0008,400.60,0.38,88.9,34.2,138.14,28.04,24.59,36.30,0.04,-272.73,-272.74,-47,559,-913,22.0,3.8,-22.7,22.1,3.8,-22.3,5.73,2.33,-26.2,26.7
2012-02-06 01:07:00,0.0,1.9063,0.0010,400.73,0.44,94.1,37.1,138.13,28.05,24.59,36.30,0.04,-272.73,-272.73,-48,558,-912,22.0,3.8,-22.6,22.1,3.8,-22.3,5.73,2.35,-26.1,26.7
2012-02-06 01:08:00,0.0,1.9065,0.0008,400.81,0.40,109.0,31.1,138.13,28.05,24.59,36.30,0.04,-272.74,-272.74,-48,558,-912,22.0,3.8,-22.6,22.1,3.8,-22.3,5.73,2.33,-26.0,26.8
2012-02-06 01:09:00,0.0,1.9067,0.0009,400.78,0.36,113.8,30.1,138.13,28.06,24.59,36.29,0.04,-272.74,-272.73,-48,558,-912,22.1,3.8,-22.6,22.1,3.9,-22.2,5.73,2.35,-26.0,26.9
2012-02-06 01:10:00,0.0,1.9072,0.0009,400.77,0.42,117.0,36.5,138.13,28.07,24.59,36.30,0.04,-272.74,-272.74,-48,558,-912,22.1,3.8,-22.5,22.2,3.9,-22.2,5.73,2.33,-25.9,26.9
2012-02-06 01:11:00,0.0,1.9076,0.0009,400.76,0.42,117.4,29.3,138.13,28.08,24.59,36.30,0.04,-272.74,-272.74,-48,558,-912,22.1,3.8,-22.5,22.2,3.9,-22.2,5.73,2.36,-25.8,27.0
2012-02-06 01:12:00,0.0,1.9082,0.0010,400.83,0.36,123.7,36.7,138.12,28.09,24.59,36.30,0.04,-272.74,-272.73,-49,558,-912,22.1,3.8,-22.5,22.2,3.9,-22.2,5.73,2.30,-25.7,27.0
2012-02-06 01:13:00,0.0,1.9081,0.0009,400.82,0.42,128.9,31.4,138.12,28.10,24.60,36.30,0.04,-272.74,-272.73,-48,558,-913,22.1,3.8,-22.5,22.2,3.9,-22.2,5.73,2.38,-25.8,27.0
2012-02-06 01:14:00,0.0,1.9084,0.0009,400.89,0.45,136.2,30.5,138.12,28.11,24.60,36.30,0.04,-272.74,-272.73,-48,558,-913,22.1,3.8,-22.5,22.3,3.9,-22.1,5.73,2.29,-25.7,27.0
2012-02-06 01:15:00,0.0,1.9090,0.0008,400.90,0.29,138.5,38.1,138.12,28.12,24.59,36.30,0.04,-272.74,-272.74,-47,559,-913,22.2,3.8,-22.5,22.3,3.9,-22.1,5.73,2.40,-25.6,27.0
2012-02-06 01:16:00,0.0,1.9097,0.0008,400.82,0.40,143.9,37.0,138.12,28.13,24.59,36.30,0.04,-272.74,-272.74,-48,558,-913,22.2,3.8,-22.4,22.3,3.9,-22.1,5.73,2.26,-25.6,27.0
2012-02-06 01:17:00,0.0,1.9095,0.0008,400.99,0.39,141.8,38.3,138.12,28.15,24.59,36.30,0.04,-272.74,-272.74,-48,559,-912,22.2,3.8,-22.4,22.3,3.9,-22.0,5.73,2.43,-25.5,27.1
2012-02-06 01:18:00,0.0,1.9094,0.0008,400.95,0.39,143.8,32.9,138.11,28.16,24.60,36.30,0.04,-272.74,-272.74,-48,558,-912,22.2,3.8,-22.4,22.3,3.9,-22.0,5.73,2.23,-25.5,27.1
2012-02-06 01:19:00,0.0,1.9097,0.0010,400.84,0.39,167.2,28.7,138.11,28.17,24.60,36.31,0.04,-272.73,-272.74,-48,559,-912,22.2,3.8,-22.3,22.4,3.9,-22.0,5.73,2.45,-25.5,27.2
2012-02-06 01:20:00,0.0,1.9101,0.0008,400.95,0.33,151.7,26.6,138.11,28.18,24.59,36.30,0.04,-272.74,-272.74,-48,559,-912,22.2,3.8,-22.4,22.4,3.9,-22.0,5.73,2.23,-25.4,27.3
2012-02-06 01:21:00,0.0,1.9098,0.0008,400.92,0.34,165.7,34.7,138.11,28.19,24.60,36.31,0.04,-272.74,-272.73,-48,559,-912,22.3,3.8,-22.4,22.4,3.9,-22.0,5.73,2.43,-25.4,27.3
2012-02-06 01:22:00,0.0,1.9103,0.0009,400.93,0.40,166.1,29.1,138.11,28.21,24.60,36.31,0.04,-272.74,-272.74,-48,559,-913,22.3,3.8,-22.3,22.4,3.9,-21.9,5.73,2.24,-25.3,27.4
2012-02-06 01:23:00,0.0,1.9104,0.0010,400.98,0.34,165.1,32.1,138.11,28.22,24.60,36.31,0.04,-272.74,-272.74,-50,561,-913,22.3,3.8,-22.3,22.5,3.9,-21.9,5.73,2.41,-25.3,27.5
2012-02-06 01:24:00,0.0,1.9105,0.0009,401.04,0.33,169.6,30.3,138.11,28.23,24.60,36.30,0.04,-272.74,-272.74,-48,559,-912,22.3,3.8,-22.4,22.5,3.9,-21.9,5.73,2.29,-25.3,27.5
2012-02-06 01:25:00,0.0,1.9105,0.0010,400.95,0.37,165.5,32.2,138.11,28.25,24.60,36.31,0.04,-272.74,-272.74,-48,560,-912,22.4,3.8,-22.3,22.5,3.9,-21.9,5.73,2.34,-25.2,27.5
2012-02-06 01:26:00,0.0,1.9106,0.0010,400.97,0.37,166.5,28.6,138.11,28.26,24.60,36.31,0.04,-272.73,-272.74,-47,560,-913,22.4,3.8,-22.4,22.5,3.9,-21.9,5.73,2.29,-25.3,27.0
2012-02-06 01:27:00,0.0,1.9099,0.0009,400.90,0.41,164.1,35.8,138.12,28.26,24.60,36.31,0.04,-272.74,-272.74,-47,559,-912,22.4,3.8,-22.4,22.5,3.9,-21.9,5.73,2.42,-25.4,26.7
2012-02-06 01:28:00,0.0,1.9097,0.0011,401.03,0.38,138.4,31.2,138.12,28.26,24.60,36.31,0.04,-272.74,-272.74,-49,560,-914,22.4,3.8,-22.3,22.4,3.9,-21.9,5.73,2.39,-25.6,26.4
2012-02-06 01:29:00,0.0,1.9092,0.0010,400.94,0.39,124.6,35.7,138.13,28.25,24.60,36.30,0.04,-272.74,-272.74,-47,561,-913,22.3,3.8,-22.4,22.4,3.9,-22.0,5.73,2.35,-25.8,26.2
2012-02-06 01:30:00,0.0,1.9081,0.0009,400.96,0.44,115.0,33.3,138.14,28.23,24.60,36.31,0.04,-272.74,-272.74,-48,562,-915,22.2,3.8,-22.4,22.3,3.9,-22.0,5.73,2.34,-26.0,25.7
2012-02-06 01:31:00,0.0,1.9073,0.0010,400.86,0.48,94.4,34.8,138.14,28.21,24.60,36.30,0.04,-272.74,-272.74,-50,560,-913,22.2,3.8,-22.5,22.2,3.9,-22.1,5.73,2.34,-26.1,25.6
2012-02-06 01:32:00,0.0,1.9067,0.0011,400.71,0.45,79.2,36.4,138.15,28.19,24.59,36.30,0.04,-272.74,-272.74,-49,560,-913,22.1,3.8,-22.5,22.2,3.9,-22.2,5.73,2.35,-26.3,25.5
2012-02-06 01:33:00,0.0,1.9061,0.0009,400.54,0.35,67.4,33.8,138.16,28.16,24.59,36.31,0.04,-272.74,-272.74,-48,560,-913,22.1,3.8,-22.5,22.1,3.9,-22.2,5.73,2.35,-26.4,25.2
2012-02-06 01:34:00,0.0,1.9049,0.0008,400.58,0.43,51.1,30.3,138.16,28.13,24.60,36.30,0.04,-272.73,-272.74,-49,561,-913,22.0,3.8,-22.6,22.0,3.9,-22.2,5.73,2.33,-26.6,25.3
2012-02-06 01:35:00,0.0,1.9045,0.0010,400.56,0.46,62.3,39.6,138.16,28.10,24.60,36.31,0.04,-272.74,-272.74,-49,559,-912,22.0,3.8,-22.5,21.9,3.9,-22.3,5.73,2.25,-26.6,25.7
2012-02-06 01:36:00,0.0,1.9045,0.0011,400.53,0.44,58.4,34.6,138.16,28.07,24.60,36.30,0.04,-272.73,-272.74,-49,559,-912,21.9,3.8,-22.5,22.0,3.9,-22.2,5.73,2.33,-26.6,26.0
2012-02-06 01:37:00,0.0,1.9049,0.0011,400.50,0.40,65.5,35.2,138.15,28.06,24.59,36.30,0.04,-272.74,-272.73,-48,558,-912,21.9,3.8,-22.4,22.0,3.9,-22.1,5.73,2.44,-26.5,26.2
2012-02-06 01:38:00,0.0,1.9046,0.0010,400.49,0.47,67.8,34.1,138.15,28.05,24.60,36.31,0.04,-272.74,-272.74,-48,558,-912,21.9,3.8,-22.4,22.0,4.0,-22.1,5.73,2.22,-26.4,26.4
2012-02-06 01:39:00,0.0,1.9046,0.0008,400.52,0.37,75.7,33.8,138.14,28.04,24.60,36.30,0.04,-272.75,-272.74,-48,559,-913,22.0,3.8,-22.4,22.0,3.9,-22.1,5.73,2.46,-26.4,26.5
2012-02-06 01:40:00,0.0,1.9054,0.0009,400.59,0.39,86.7,40.0,138.14,28.04,24.59,36.30,0.04,-272.74,-272.74,-48,558,-913,22.0,3.8,-22.4,22.1,3.9,-22.1,5.73,2.23,-26.2,26.6
2012-02-06 01:41:00,0.0,1.9058,0.0010,400.69,0.33,88.8,33.8,138.14,28.05,24.59,36.31,0.04,-272.73,-272.74,-48,558,-912,22.0,3.8,-22.4,22.1,3.9,-22.1,5.73,2.45,-26.2,26.7
2012-02-06 01:42:00,0.0,1.9061,0.0008,400.69,0.43,99.3,34.7,138.13,28.05,24.59,36.30,0.04,-272.74,-272.74,-48,558,-912,22.0,3.8,-22.4,22.1,3.9,-22.0,5.73,2.22,-26.1,26.8
2012-02-06 01:43:00,0.0,1.9065,0.0009,400.70,0.43,111.3,36.7,138.13,28.06,24.59,36.30,0.04,-272.74,-272.74,-49,558,-912,22.0,3.9,-22.3,22.1,4.0,-22.0,5.73,2.45,-26.0,26.8
2012-02-06 01:44:00,0.0,1.9069,0.0009,400.73,0.37,111.9,32.6,138.13,28.07,24.59,36.30,0.04,-272.74,-272.73,-48,558,-911,22.1,3.8,-22.4,22.1,3.9,-22.0,5.73,2.23,-26.0,26.9
2012-02-06 01:45:00,0.0,1.9075,0.0011,400.95,0.40,117.0,30.7,138.13,28.07,24.59,36.29,0.04,-272.74,-272.74,-49,558,-911,22.1,3.8,-22.4,22.2,3.9,-22.0,5.73,2.43,-25.9,27.0
2012-02-06 01:46:00,0.0,1.9075,0.0008,400.75,0.34,119.7,30.0,138.12,28.08,24.59,36.30,0.04,-272.73,-272.74,-48,558,-912,22.1,3.8,-22.4,22.2,3.9,-22.0,5.73,2.25,-25.9,27.0
2012-02-06 01:47:00,0.0,1.9078,0.0009,400.87,0.43,127.2,31.8,138.12,28.09,24.59,36.30,0.04,-272.74,-272.74,-48,558,-912,22.1,3.8,-22.3,22.2,3.9,-22.0,5.73,2.42,-25.8,27.0
2012-02-06 01:48:00,0.0,1.9083,0.0008,400.81,0.42,130.6,30.4,138.12,28.11,24.59,36.30,0.04,-272.73,-272.74,-47,559,-912,22.1,3.8,-22.3,22.2,3.9,-22.0,5.73,2.28,-25.7,27.0
2012-02-06 01:49:00,0.0,1.9082,0.0009,400.91,0.35,135.3,30.4,138.12,28.12,24.60,36.30,0.04,-272.74,-272.74,-48,558,-912,22.1,3.8,-22.3,22.3,4.0,-21.9,5.73,2.37,-25.7,27.0
2012-02-06 01:50:00,0.0,1.9086,0.0011,400.85,0.35,132.7,29.9,138.12,28.13,24.59,36.30,0.04,-272.74,-272.74,-47,559,-912,22.1,3.9,-22.3,22.3,4.0,-21.9,5.73,2.33,-25.6,27.0
2012-02-06 01:51:00,0.0,1.9090,0.0010,400.84,0.37,140.8,34.2,138.12,28.14,24.60,36.30,0.04,-272.74,-272.73,-48,558,-912,22.1,3.8,-22.3,22.3,4.0,-21.9,5.73,2.32,-25.6,27.1
2012-02-06 01:52:00,0.0,1.9092,0.0009,400.83,0.40,151.8,32.9,138.12,28.15,24.59,36.30,0.04,-272.74,-272.74,-48,559,-912,22.2,3.8,-22.3,22.3,4.0,-21.8,5.73,2.38,-25.5,27.1
2012-02-06 01:53:00,0.0,1.9091,0.0010,400.83,0.36,151.1,39.7,138.11,28.16,24.60,36.30,0.04,-272.74,-272.73,-49,559,-911,22.2,3.8,-22.3,22.3,4.0,-21.8,5.73,2.25,-25.5,27.2
2012-02-06 01:54:00,0.0,1.9093,0.0010,400.96,0.37,154.0,32.4,138.11,28.18,24.60,36.30,0.04,-272.73,-272.74,-47,559,-912,22.2,3.8,-22.3,22.3,3.9,-21.9,5.73,2.44,-25.5,27.2
2012-02-06 01:55:00,0.0,1.9095,0.0009,400.85,0.41,155.3,34.9,138.11,28.19,24.60,36.31,0.04,-272.74,-272.74,-48,559,-912,22.2,3.8,-22.3,22.4,4.0,-21.8,5.73,2.22,-25.4,27.4
2012-02-06 01:56:00,0.0,1.9098,0.0008,400.81,0.35,158.9,34.2,138.11,28.20,24.59,36.31,0.04,-272.73,-272.74,-48,559,-911,22.3,3.9,-22.2,22.4,4.0,-21.8,5.73,2.43,-25.4,27.4
2012-02-06 01:57:00,0.0,1.9097,0.0008,400.84,0.37,159.9,35.0,138.11,28.21,24.60,36.31,0.04,-272.74,-272.74,-49,559,-911,22.3,3.9,-22.1,22.4,4.0,-21.7,5.73,2.26,-25.3,27.4
2012-02-06 01:58:00,0.0,1.9100,0.0010,400.96,0.33,160.6,32.3,138.11,28.22,24.60,36.31,0.04,-272.74,-272.74,-50,557,-913,22.3,3.9,-21.9,22.5,4.0,-21.5,5.73,2.35,-25.3,27.5
2012-02-06 01:59:00,0.0,1.9096,0.0009,400.84,0.37,165.1,30.7,138.11,28.23,24.60,36.31,0.04,-272.74,-272.74,-48,559,-911,22.3,4.0,-21.8,22.5,4.1,-21.4,5.73,2.36,-25.3,27.6
2012-02-06 02:00:00,0.0,1.9094,0.0009,400.88,0.33,165.9,33.4,138.11,28.25,24.60,36.31,0.04,-272.74,-272.74,-47,560,-912,22.4,3.9,-21.9,22.5,4.0,-21.5,5.73,2.29,-25.3,27.3
2012-02-06 02:01:00,0.0,1.9092,0.0008,400.82,0.41,158.3,33.0,138.12,28.26,24.60,36.31,0.04,-272.73,-272.74,-47,560,-912,22.4,3.9,-21.8,22.5,4.1,-21.4,5.73,2.30,-25.4,26.9
2012-02-06 02:02:00,0.0,1.9088,0.0010,400.84,0.37,148.8,35.5,138.12,28.25,24.60,36.31,0.04,-272.74,-272.74,-47,561,-912,22.3,4.0,-21.8,22.4,4.1,-21.4,5.73,2.40,-25.5,26.6
2012-02-06 02:03:00,0.0,1.9084,0.0009,400.90,0.40,116.3,39.7,138.13,28.25,24.60,36.31,0.04,-272.74,-272.74,-48,559,-913,22.3,4.0,-21.7,22.4,4.1,-21.3,5.73,2.39,-25.7,26.3
2012-02-06 02:04:00,0.0,1.9084,0.0009,400.82,0.33,122.6,36.9,138.14,28.23,24.60,36.31,0.04,-272.74,-272.74,-46,560,-912,22.3,4.0,-21.7,22.3,4.1,-21.3,5.73,2.37,-25.9,26.1
2012-02-06 02:05:00,0.0,1.9076,0.0010,400.85,0.42,104.3,26.5,138.14,28.22,24.60,36.31,0.04,-272.74,-272.74,-48,561,-912,22.2,4.0,-21.9,22.2,4.1,-21.5,5.73,2.35,-26.0,25.9
2012-02-06 02:06:00,0.0,1.9064,0.0011,400.67,0.40,89.0,33.8,138.15,28.19,24.60,36.31,0.04,-272.74,-272.74,-48,559,-912,22.1,4.0,-21.9,22.2,4.1,-21.6,5.73,2.34,-26.0,25.8
2012-02-06 02:07:00,0.0,1.9053,0.0008,400.60,0.41,77.8,35.2,138.15,28.17,24.60,36.31,0.04,-272.74,-272.74,-48,560,-912,22.1,4.0,-22.0,22.1,4.1,-21.6,5.73,2.34,-26.3,25.6
2012-02-06 02:08:00,0.0,1.9051,0.0010,400.57,0.42,62.4,32.9,138.16,28.14,24.59,36.31,0.04,-272.74,-272.74,-49,560,-912,22.0,4.0,-22.0,22.1,4.1,-21.7,5.73,2.34,-26.4,25.5
2012-02-06 02:09:00,0.0,1.9047,0.0007,400.53,0.39,58.9,31.8,138.16,28.11,24.59,36.30,0.04,-272.75,-272.74,-49,559,-912,22.0,3.9,-22.1,22.0,4.1,-21.7,5.73,2.28,-26.5,25.7
2012-02-06 02:10:00,0.0,1.9046,0.0008,400.57,0.41,65.3,28.5,138.16,28.09,24.59,36.30,0.04,-272.74,-272.74,-49,559,-911,22.0,3.9,-22.1,22.0,4.0,-21.8,5.73,2.26,-26.5,26.0
2012-02-06 02:11:00,0.0,1.9046,0.0009,400.53,0.37,66.9,37.7,138.15,28.07,24.59,36.30,0.04,-272.74,-272.74,-49,558,-911,22.0,3.9,-22.1,22.0,4.0,-21.8,5.73,2.45,-26.5,26.2
2012-02-06 02:12:00,0.0,1.9045,0.0008,400.57,0.34,75.5,33.7,138.15,28.06,24.59,36.30,0.04,-272.74,-272.74,-49,558,-911,22.0,3.9,-22.1,22.1,4.0,-21.8,5.73,2.23,-26.4,26.4
2012-02-06 02:13:00,0.0,1.9047,0.0010,400.63,0.35,81.0,33.4,138.14,28.05,24.59,36.30,0.04,-272.74,-272.74,-48,559,-912,22.0,3.9,-22.2,22.1,4.0,-21.8,5.73,2.43,-26.3,26.5
2012-02-06 02:14:00,0.0,1.9050,0.0009,400.65,0.38,77.5,32.1,138.14,28.05,24.59,36.30,0.04,-272.74,-272.75,-48,558,-911,22.0,3.9,-22.2,22.1,4.0,-21.8,5.73,2.24,-26.2,26.6
2012-02-06 02:15:00,0.0,1.9053,0.0010,400.56,0.41,92.8,34.5,138.14,28.05,24.59,36.30,0.04,-272.73,-272.74,-48,559,-911,22.0,3.9,-22.1,22.1,4.0,-21.8,5.73,2.44,-26.2,26.7
2012-02-06 02:16:00,0.0,1.9057,0.0009,400.69,0.42,100.5,36.1,138.13,28.05,24.59,36.30,0.26,-270.92,-272.43,-48,559,-911,22.0,3.9,-22.1,22.1,4.0,-21.8,5.42,2.29,-30.3,26.8
2012-02-06 02:17:00,0.0,1.9063,0.0008,400.78,0.36,106.3,30.6,138.13,28.06,24.59,36.30,0.04,-272.73,-272.74,-48,558,-911,22.1,3.9,-22.1,22.1,4.0,-21.8,5.73,2.45,-26.0,26.9